Flag for U.S.A. Weather past 2 weeks in Post Falls, Idaho, U.S.A.

Now
66 °F

Clear.


Feels Like: 66 °F
Forecast: 61 / 95 °F
Wind: 5 mph from Northeast

Location: Coeur d'Alene Weather Reporting System

Current Time: Aug 3, 2015 at 12:45:36 AM

Latest Report: Aug 3, 2015 at 12:15 AM


Visibility: 10 mi

Pressure: 29.82 "Hg (27.59 "Hg at 664m altitude)

Humidity: 37%

Dew point: 39 °F

Location of Post FallsLocation

Historic Weather in Post Falls — Graph

°F

Post Falls temperature yesterday

Maximum temperature yesterday: 99 °F (at 2:55 PM)
Minimum temperature yesterday: 54 °F (at 3:35 AM)
Average temperature yesterday: 76 °F

Past Weeks' High & Low Weather Summary

 TemperatureHumidityPressure
High99 °F (Jul 31, 2:15 PM)88% (Jul 25, 8:35 PM)30.23 "Hg (Jul 25, 8:35 PM)
Low48 °F (Jul 27, 5:35 AM)10% (Jul 19, 11:15 PM)29.72 "Hg (Jul 22, 12:15 AM)
Average71 °F38%29.98 "Hg
* Reported Jul 18 11:15 PM — Aug 2 11:35 PM, Post Falls, Weather by CustomWeather, © 2015

Note: Actual official high and low records may vary slightly from our data, if they occured in-between our weather recording intervals... More about our weather records

Advertising

Post Falls weather history for previous 24 hours

 ConditionsComfort  
Time TempWeatherWind HumidityBarometerVisibility
11:35 PM
Sun, Aug 2
68 °FClear.5 mph43%29.83 "Hg10 mi
11:15 PM68 °FClear.3 mph40%29.83 "Hg10 mi
10:55 PM72 °FClear.No wind36%29.83 "Hg10 mi
10:35 PM73 °FClear.5 mph36%29.83 "Hg10 mi
10:15 PM73 °FClear.6 mph36%29.83 "Hg10 mi
9:55 PM73 °FClear.6 mph38%29.83 "Hg10 mi
9:15 PM75 °FSunny.5 mph22%29.83 "Hg10 mi
8:55 PM81 °FSunny.3 mph20%29.82 "Hg10 mi
8:35 PM81 °FSunny.3 mph20%29.81 "Hg9 mi
8:15 PM84 °FSunny.5 mph16%29.81 "Hg9 mi
7:55 PM88 °FSunny.6 mph15%29.81 "Hg9 mi
7:35 PM90 °FSunny.3 mph13%29.81 "Hg10 mi
7:15 PM90 °FSunny.3 mph11%29.81 "Hg10 mi
6:55 PM91 °FSunny.3 mph10%29.80 "Hg10 mi
6:35 PM93 °FSunny.5 mph11%29.80 "Hg10 mi
6:15 PM95 °FSunny.6 mph10%29.81 "Hg10 mi
5:55 PM97 °FSunny.7 mph10%29.81 "Hg10 mi
5:35 PM97 °FSunny.8 mph10%29.81 "Hg10 mi
5:15 PM97 °FSunny.9 mph11%29.82 "Hg9 mi
4:55 PM99 °FSunny.12 mph10%29.82 "Hg9 mi
4:35 PM99 °FSunny.9 mph10%29.83 "Hg10 mi
4:15 PM99 °FSunny.12 mph10%29.83 "Hg10 mi
3:55 PM99 °FSunny.12 mph10%29.83 "Hg10 mi
3:15 PM99 °FSunny.6 mph10%29.85 "Hg10 mi
2:55 PM99 °FSunny.8 mph10%29.85 "Hg10 mi
2:35 PM97 °FSunny.3 mph12%29.86 "Hg9 mi
1:55 PM93 °FSunny.6 mph13%29.88 "Hg8 mi
1:35 PM93 °FSunny.8 mph14%29.88 "Hg7 mi
1:15 PM91 °FSunny.5 mph15%29.89 "Hg8 mi
12:55 PM91 °FSunny.8 mph15%29.90 "Hg5 mi
12:35 PM90 °FSunny.6 mph16%29.90 "Hg8 mi
12:15 PM90 °FSunny.No wind16%29.91 "Hg9 mi
11:55 AM88 °FSunny.5 mph17%29.91 "Hg8 mi
11:35 AM88 °FSunny.6 mph17%29.92 "Hg8 mi
11:15 AM84 °FSunny.3 mph19%29.92 "Hg9 mi
10:55 AM84 °FSunny.3 mph20%29.93 "Hg9 mi
10:35 AM82 °FSunny.No wind21%29.93 "Hg8 mi
10:15 AM79 °FSunny.No wind24%29.93 "Hg10 mi
9:55 AM79 °FSunny.5 mph28%29.94 "Hg10 mi
9:35 AM77 °FSunny.5 mph30%29.94 "Hg10 mi
9:15 AM75 °FSunny.5 mph29%29.94 "Hg10 mi
8:55 AM73 °FSunny.3 mph33%29.95 "Hg10 mi
8:35 AM70 °FSunny.6 mph20%29.95 "Hg10 mi
8:15 AM68 °FSunny.7 mph40%29.95 "Hg10 mi
7:55 AM66 °FSunny.8 mph43%29.95 "Hg10 mi
7:35 AM66 °FSunny.7 mph37%29.94 "Hg10 mi
7:15 AM64 °FSunny.7 mph40%29.94 "Hg10 mi
6:55 AM63 °FSunny.No wind49%29.94 "Hg10 mi
6:35 AM61 °FSunny.5 mph55%29.93 "Hg10 mi
6:15 AM55 °FClear.6 mph55%29.93 "Hg10 mi
5:55 AM55 °FClear.3 mph51%29.93 "Hg10 mi
5:35 AM54 °FClear.6 mph54%29.92 "Hg10 mi
5:15 AM54 °FClear.5 mph51%29.92 "Hg10 mi
4:55 AM55 °FClear.7 mph55%29.92 "Hg10 mi
4:35 AM54 °FClear.10 mph51%29.92 "Hg10 mi
4:15 AM55 °FClear.5 mph51%29.92 "Hg10 mi
3:55 AM54 °FClear.8 mph54%29.92 "Hg10 mi
3:35 AM54 °FClear.7 mph51%29.91 "Hg10 mi
3:15 AM55 °FClear.5 mph59%29.91 "Hg10 mi
2:55 AM55 °FClear.5 mph51%29.91 "Hg10 mi
2:35 AM55 °FClear.5 mph51%29.91 "Hg10 mi
2:15 AM57 °FClear.No wind48%29.90 "Hg10 mi
1:55 AM55 °FClear.6 mph51%29.90 "Hg10 mi
1:35 AM64 °FClear.No wind40%29.89 "Hg10 mi
1:15 AM64 °FClear.No wind40%29.90 "Hg10 mi
12:55 AM64 °FClear.No wind46%29.89 "Hg10 mi
12:35 AM63 °FClear.5 mph49%29.89 "Hg10 mi
12:15 AM64 °FClear.No wind43%29.90 "Hg10 mi
Weather by CustomWeather, © 2015

See weather overviewHow to use our weather pages